Location: ?
(35.4214°N, 139.3011°E)
Time: 21:54:48
(UTC+00:00)

OAO 3 Copernicus - Pass Details

Date: 14 July 2020
Orbit: 695 x 704 km, 35.0° (Epoch: 10 August)

Event Time Altitude Azimuth Distance (km) Brightness Sun altitude
Rises 11:19:32 0° 269° (W) 3,080 8.4 -14.5°
Reaches altitude 10° 11:21:57 10° 269° (W) 2,161 7.6 -14.9°
Maximum altitude 11:27:02 87° 183° (S) 704 4.2 -15.6°
Enters shadow 11:30:38 20° 93° (E) 1,611 5.7 -16.2°
